星链-6115 (STARLINK-6115 )

导读 | 星芒AI

STARLINK-6115 是 SpaceX Starlink 项目中的一颗低轨通信卫星,属于第六批发射的星链卫星群。该卫星运行在约 550 公里的轨道高度,旨在为全球用户提供高速互联网服务。作为星链网络的一部分,STARLINK-6115 采用先进推进系统和激光通信技术,提升网络稳定性和数据传输效率。其部署有助于扩大 Starlink 在偏远和网络覆盖不足地区的服务范围,支持全球互联网接入的普及。

基本信息
目录编号:
56123
目录名称:
STARLINK-6115
国际标识:
2023-046AH
轨道中心:
EARTH
卫星名称:
星链-6115
卫星全名:
星链-6115 (STARLINK-6115 )
卫星状态:
在轨 (已飞行951 天)
发射日期:
2023-03-29 UTC
国别 :
美国 (US)
星等 :
--
轨道信息
数据来源 国际轨道数据
星历时间: 2025-11-02T19:33:44+0800
1天前
查看轨道信息
半长轴: 6937.221km
偏心率: 0.0001461
轨道倾角: 43.003°
近地点辐角 267.171°
升交点赤经 117.438°
平近点角 92.897°
近地点: 558.072km
远地点: 560.1km
周期: 95.838分钟
每日圈数: 15.025347
详细信息
固有亮度:
5
最大亮度:
2.5
卫星平台:
Starlink v1.5
覆盖范围:
全球
运营商:
太空探索技术公司
运营商所在国:
美国
制造商(研发单位):
太空探索技术公司
制造商所在国:
美国
使用方式:
暂无
卫星简介
星链(Starlink)计划是由太空探索技术公司(SpaceX)提出的一个巨型低轨卫星互联网星座项目,计划在2019年至2024年间在太空搭建由约1.2万颗卫星组成的“星链”网络,其中1584颗将部署在地球上空550千米处的近地轨道,并从2020年开始工作。该卫星仍在工作。
2D轨道图
3D轨道图
轨道高度分析图
轨道倾角分析图
轨道综合分析图
查看轨道综合分析图